Time,TemperatureF,DewpointF,PressureIn,WindDirection,WindDirectionDegrees,WindSpeedMPH,WindSpeedGustMPH,Humidity,HourlyPrecipIn,Conditions,Clouds,dailyrainin,SoftwareType,DateUTC
2013-02-02 00:14:00,55.4,46.0,30.20,SSE,164,8.0,10.0,72,0.00,,,0.00,weatherlink.com 1.10,2013-02-02 06:14:00,
2013-02-02 00:29:00,55.1,47.0,30.20,SW,214,4.0,8.0,73,0.00,,,0.00,weatherlink.com 1.10,2013-02-02 06:29:00,
2013-02-02 00:44:00,54.9,47.0,30.20,South,172,3.0,8.0,75,0.00,,,0.00,weatherlink.com 1.10,2013-02-02 06:44:00,
2013-02-02 01:00:00,54.8,47.0,30.20,South,183,3.0,7.0,76,0.00,,,0.00,weatherlink.com 1.10,2013-02-02 07:00:00,
2013-02-02 01:14:00,54.5,47.0,30.19,South,173,4.0,9.0,77,0.00,,,0.00,weatherlink.com 1.10,2013-02-02 07:14:00,
2013-02-02 01:29:00,54.5,48.0,30.18,South,176,5.0,8.0,78,0.00,,,0.00,weatherlink.com 1.10,2013-02-02 07:29:00,
2013-02-02 01:44:00,54.5,48.0,30.18,South,172,4.0,9.0,79,0.00,,,0.00,weatherlink.com 1.10,2013-02-02 07:44:00,
2013-02-02 01:59:00,54.6,49.0,30.18,South,169,5.0,8.0,80,0.00,,,0.00,weatherlink.com 1.10,2013-02-02 07:59:00,
2013-02-02 02:14:00,54.5,48.0,30.18,South,181,3.0,7.0,80,0.00,,,0.00,weatherlink.com 1.10,2013-02-02 08:14:00,
2013-02-02 02:29:00,54.0,48.0,30.18,SSW,205,6.0,6.0,81,0.00,,,0.00,weatherlink.com 1.10,2013-02-02 08:29:00,
2013-02-02 02:45:00,54.0,49.0,30.17,SSE,168,3.0,6.0,82,0.00,,,0.00,weatherlink.com 1.10,2013-02-02 08:45:00,
2013-02-02 02:59:00,53.8,48.0,30.17,SSW,207,1.0,5.0,82,0.00,,,0.00,weatherlink.com 1.10,2013-02-02 08:59:00,
2013-02-02 03:14:00,53.6,49.0,30.17,SSE,168,3.0,6.0,83,0.00,,,0.00,weatherlink.com 1.10,2013-02-02 09:14:00,
2013-02-02 03:31:00,53.2,48.0,30.17,SW,218,2.0,4.0,83,0.00,,,0.00,weatherlink.com 1.10,2013-02-02 09:31:00,
2013-02-02 03:45:00,52.9,48.0,30.17,SSW,195,2.0,5.0,84,0.00,,,0.00,weatherlink.com 1.10,2013-02-02 09:45:00,
2013-02-02 04:00:00,52.7,48.0,30.17,SSW,211,2.0,5.0,84,0.00,,,0.00,weatherlink.com 1.10,2013-02-02 10:00:00,
2013-02-02 04:15:00,52.4,48.0,30.17,SW,217,0.0,4.0,85,0.00,,,0.00,weatherlink.com 1.10,2013-02-02 10:15:00,
2013-02-02 04:30:00,51.8,48.0,30.17,WSW,238,0.0,3.0,86,0.00,,,0.00,weatherlink.com 1.10,2013-02-02 10:30:00,
2013-02-02 04:45:00,50.9,47.0,30.17,WSW,240,0.0,1.0,87,0.00,,,0.00,weatherlink.com 1.10,2013-02-02 10:45:00,
2013-02-02 05:00:00,49.7,46.0,30.18,WSW,244,0.0,1.0,88,0.00,,,0.00,weatherlink.com 1.10,2013-02-02 11:00:00,
2013-02-02 05:15:00,48.9,46.0,30.18,NNW,331,0.0,2.0,88,0.00,,,0.00,weatherlink.com 1.10,2013-02-02 11:15:00,
2013-02-02 05:30:00,47.5,44.0,30.18,NNW,331,0.0,0.0,88,0.00,,,0.00,weatherlink.com 1.10,2013-02-02 11:30:00,
2013-02-02 05:45:00,46.6,44.0,30.19,NNW,331,0.0,1.0,90,0.00,,,0.00,weatherlink.com 1.10,2013-02-02 11:45:00,
2013-02-02 06:00:00,45.9,43.0,30.19,NE,34,0.0,0.0,90,0.00,,,0.00,weatherlink.com 1.10,2013-02-02 12:00:00,
2013-02-02 06:15:00,45.4,43.0,30.20,ESE,107,0.0,1.0,91,0.00,,,0.00,weatherlink.com 1.10,2013-02-02 12:15:00,
2013-02-02 06:30:00,45.1,43.0,30.20,ESE,107,0.0,0.0,92,0.00,,,0.00,weatherlink.com 1.10,2013-02-02 12:30:00,
2013-02-02 06:45:00,44.5,42.0,30.21,ESE,107,0.0,0.0,92,0.00,,,0.00,weatherlink.com 1.10,2013-02-02 12:45:00,
2013-02-02 07:04:00,44.5,42.0,30.21,ESE,107,0.0,0.0,92,0.00,,,0.00,weatherlink.com 1.10,2013-02-02 13:04:00,
2013-02-02 07:16:00,44.5,43.0,30.22,ESE,107,0.0,1.0,93,0.00,,,0.00,weatherlink.com 1.10,2013-02-02 13:16:00,
2013-02-02 07:31:00,44.4,43.0,30.22,SE,134,0.0,1.0,93,0.00,,,0.00,weatherlink.com 1.10,2013-02-02 13:31:00,
2013-02-02 07:45:00,44.8,43.0,30.22,ESE,113,0.0,1.0,93,0.00,,,0.00,weatherlink.com 1.10,2013-02-02 13:45:00,
2013-02-02 08:01:00,46.4,45.0,30.22,ESE,113,0.0,1.0,93,0.00,,,0.00,weatherlink.com 1.10,2013-02-02 14:01:00,
2013-02-02 08:15:00,48.1,45.0,30.23,ENE,75,1.0,2.0,90,0.00,,,0.00,weatherlink.com 1.10,2013-02-02 14:15:00,
2013-02-02 08:30:00,50.0,46.0,30.23,East,84,2.0,3.0,87,0.00,,,0.00,weatherlink.com 1.10,2013-02-02 14:30:00,
2013-02-02 08:45:00,52.7,48.0,30.23,East,95,1.0,2.0,85,0.00,,,0.00,weatherlink.com 1.10,2013-02-02 14:45:00,
2013-02-02 09:00:00,54.7,49.0,30.24,East,81,2.0,2.0,82,0.00,,,0.00,weatherlink.com 1.10,2013-02-02 15:00:00,
2013-02-02 09:16:00,55.9,50.0,30.24,East,81,0.0,1.0,79,0.00,,,0.00,weatherlink.com 1.10,2013-02-02 15:16:00,
2013-02-02 09:30:00,58.2,51.0,30.25,NE,43,1.0,2.0,76,0.00,,,0.00,weatherlink.com 1.10,2013-02-02 15:30:00,
2013-02-02 09:45:00,60.1,53.0,30.24,ESE,108,0.0,1.0,77,0.00,,,0.00,weatherlink.com 1.10,2013-02-02 15:45:00,
2013-02-02 10:01:00,62.3,54.0,30.24,SSW,202,3.0,4.0,73,0.00,,,0.00,weatherlink.com 1.10,2013-02-02 16:01:00,
2013-02-02 10:16:00,65.1,55.0,30.24,SSE,155,6.0,7.0,71,0.00,,,0.00,weatherlink.com 1.10,2013-02-02 16:16:00,
2013-02-02 10:31:00,65.7,55.0,30.24,SSW,206,4.0,10.0,69,0.00,,,0.00,weatherlink.com 1.10,2013-02-02 16:31:00,
2013-02-02 10:46:00,65.9,55.0,30.24,WSW,245,5.0,9.0,69,0.00,,,0.00,weatherlink.com 1.10,2013-02-02 16:46:00,
2013-02-02 11:01:00,66.9,56.0,30.23,WSW,245,6.0,11.0,68,0.00,,,0.00,weatherlink.com 1.10,2013-02-02 17:01:00,
2013-02-02 11:16:00,67.2,57.0,30.24,SW,222,7.0,11.0,69,0.00,,,0.00,weatherlink.com 1.10,2013-02-02 17:16:00,
2013-02-02 11:34:00,68.3,57.0,30.23,SW,214,9.0,12.0,68,0.00,,,0.00,weatherlink.com 1.10,2013-02-02 17:34:00,
2013-02-02 11:46:00,69.0,58.0,30.23,South,173,6.0,10.0,68,0.00,,,0.00,weatherlink.com 1.10,2013-02-02 17:46:00,
2013-02-02 12:01:00,70.5,58.0,30.23,WSW,255,8.0,11.0,64,0.00,,,0.00,weatherlink.com 1.10,2013-02-02 18:01:00,
2013-02-02 12:16:00,70.6,58.0,30.22,West,266,6.0,11.0,64,0.00,,,0.00,weatherlink.com 1.10,2013-02-02 18:16:00,
2013-02-02 12:31:00,71.9,59.0,30.21,South,169,4.0,10.0,63,0.00,,,0.00,weatherlink.com 1.10,2013-02-02 18:31:00,
2013-02-02 12:46:00,71.3,56.0,30.21,WSW,248,7.0,12.0,59,0.00,,,0.00,weatherlink.com 1.10,2013-02-02 18:46:00,
2013-02-02 13:01:00,70.9,57.0,30.20,West,269,2.0,8.0,62,0.00,,,0.00,weatherlink.com 1.10,2013-02-02 19:01:00,
2013-02-02 13:16:00,70.6,56.0,30.20,West,271,5.0,8.0,60,0.00,,,0.00,weatherlink.com 1.10,2013-02-02 19:16:00,
2013-02-02 13:34:00,71.0,56.0,30.19,ESE,117,1.0,7.0,60,0.00,,,0.00,weatherlink.com 1.10,2013-02-02 19:34:00,
2013-02-02 13:46:00,71.6,56.0,30.18,WSW,256,2.0,5.0,58,0.00,,,0.00,weatherlink.com 1.10,2013-02-02 19:46:00,
2013-02-02 14:01:00,71.4,56.0,30.17,West,271,1.0,6.0,58,0.00,,,0.00,weatherlink.com 1.10,2013-02-02 20:01:00,
2013-02-02 14:16:00,72.2,56.0,30.17,SSW,208,3.0,6.0,57,0.00,,,0.00,weatherlink.com 1.10,2013-02-02 20:16:00,
2013-02-02 14:32:00,73.9,56.0,30.17,WSW,239,3.0,8.0,53,0.00,,,0.00,weatherlink.com 1.10,2013-02-02 20:32:00,
2013-02-02 14:46:00,75.3,56.0,30.16,South,187,3.0,-999.0,52,-99.99,,,0.00,weatherlink.com 1.10,2013-02-02 20:46:00,
2013-02-02 15:01:00,74.4,55.0,30.16,WSW,246,4.0,6.0,51,0.00,,,0.00,weatherlink.com 1.10,2013-02-02 21:01:00,
2013-02-02 15:16:00,73.2,54.0,30.16,SW,232,2.0,5.0,51,0.00,,,0.00,weatherlink.com 1.10,2013-02-02 21:16:00,
2013-02-02 15:31:00,73.3,54.0,30.16,NW,320,1.0,4.0,52,0.00,,,0.00,weatherlink.com 1.10,2013-02-02 21:31:00,
2013-02-02 15:46:00,74.2,55.0,30.15,NNE,15,1.0,3.0,51,0.00,,,0.00,weatherlink.com 1.10,2013-02-02 21:46:00,
2013-02-02 16:01:00,75.6,53.0,30.15,SW,224,1.0,5.0,45,0.00,,,0.00,weatherlink.com 1.10,2013-02-02 22:01:00,
2013-02-02 16:17:00,74.4,54.0,30.15,SW,222,1.0,2.0,49,0.00,,,0.00,weatherlink.com 1.10,2013-02-02 22:17:00,
2013-02-02 16:32:00,73.7,52.0,30.15,WSW,257,1.0,2.0,47,0.00,,,0.00,weatherlink.com 1.10,2013-02-02 22:32:00,
2013-02-02 16:47:00,75.1,52.0,30.15,WNW,302,0.0,2.0,44,0.00,,,0.00,weatherlink.com 1.10,2013-02-02 22:47:00,
2013-02-02 17:01:00,76.0,53.0,30.15,NNE,19,0.0,4.0,45,0.00,,,0.00,weatherlink.com 1.10,2013-02-02 23:01:00,
2013-02-02 17:16:00,74.5,52.0,30.15,SSE,148,2.0,3.0,46,0.00,,,0.00,weatherlink.com 1.10,2013-02-02 23:16:00,
2013-02-02 17:31:00,75.4,52.0,30.16,SW,218,0.0,2.0,44,0.00,,,0.00,weatherlink.com 1.10,2013-02-02 23:31:00,
2013-02-02 17:47:00,74.4,52.0,30.16,SW,218,0.0,0.0,45,0.00,,,0.00,weatherlink.com 1.10,2013-02-02 23:47:00,
2013-02-02 18:02:00,72.8,52.0,30.16,SW,219,0.0,1.0,48,0.00,,,0.00,weatherlink.com 1.10,2013-02-03 00:02:00,
2013-02-02 18:17:00,70.2,52.0,30.17,SW,218,0.0,0.0,52,0.00,,,0.00,weatherlink.com 1.10,2013-02-03 00:17:00,
2013-02-02 18:32:00,68.2,51.0,30.17,SW,218,0.0,0.0,55,0.00,,,0.00,weatherlink.com 1.10,2013-02-03 00:32:00,
2013-02-02 18:47:00,67.5,52.0,30.18,SW,218,0.0,0.0,57,0.00,,,0.00,weatherlink.com 1.10,2013-02-03 00:47:00,
2013-02-02 19:02:00,66.6,51.0,30.19,SE,127,0.0,0.0,58,0.00,,,0.00,weatherlink.com 1.10,2013-02-03 01:02:00,
2013-02-02 19:17:00,66.3,52.0,30.19,SE,127,0.0,0.0,60,0.00,,,0.00,weatherlink.com 1.10,2013-02-03 01:17:00,
2013-02-02 19:33:00,66.4,51.0,30.20,NNE,20,0.0,0.0,59,0.00,,,0.00,weatherlink.com 1.10,2013-02-03 01:33:00,
2013-02-02 19:47:00,65.6,51.0,30.21,NNE,20,0.0,0.0,60,0.00,,,0.00,weatherlink.com 1.10,2013-02-03 01:47:00,
2013-02-02 20:02:00,62.6,51.0,30.21,East,84,0.0,0.0,65,0.00,,,0.00,weatherlink.com 1.10,2013-02-03 02:02:00,
2013-02-02 20:17:00,60.6,50.0,30.21,East,84,0.0,0.0,69,0.00,,,0.00,weatherlink.com 1.10,2013-02-03 02:17:00,
2013-02-02 20:32:00,60.5,50.0,30.22,East,83,0.0,0.0,68,0.00,,,0.00,weatherlink.com 1.10,2013-02-03 02:32:00,
2013-02-02 20:47:00,59.2,50.0,30.22,East,83,0.0,0.0,72,0.00,,,0.00,weatherlink.com 1.10,2013-02-03 02:47:00,
2013-02-02 21:02:00,59.3,50.0,30.23,East,84,0.0,0.0,72,0.00,,,0.00,weatherlink.com 1.10,2013-02-03 03:02:00,
2013-02-02 21:17:00,58.7,50.0,30.23,East,83,0.0,0.0,74,0.00,,,0.00,weatherlink.com 1.10,2013-02-03 03:17:00,
2013-02-02 21:32:00,58.0,50.0,30.23,East,83,0.0,0.0,76,0.00,,,0.00,weatherlink.com 1.10,2013-02-03 03:32:00,
2013-02-02 21:47:00,57.4,50.0,30.24,East,84,0.0,0.0,75,0.00,,,0.00,weatherlink.com 1.10,2013-02-03 03:47:00,
2013-02-02 22:02:00,57.2,50.0,30.24,East,82,1.0,1.0,77,0.00,,,0.00,weatherlink.com 1.10,2013-02-03 04:02:00,
2013-02-02 22:17:00,59.1,51.0,30.25,NNE,29,5.0,10.0,74,0.00,,,0.00,weatherlink.com 1.10,2013-02-03 04:17:00,
2013-02-02 22:47:00,59.3,50.0,30.26,NE,53,4.0,7.0,72,0.00,,,0.00,weatherlink.com 1.10,2013-02-03 04:47:00,
2013-02-02 23:02:00,58.3,50.0,30.26,ENE,75,3.0,5.0,74,0.00,,,0.00,weatherlink.com 1.10,2013-02-03 05:02:00,
2013-02-02 23:17:00,56.5,49.0,30.26,East,79,3.0,3.0,77,0.00,,,0.00,weatherlink.com 1.10,2013-02-03 05:17:00,
2013-02-02 23:32:00,55.9,50.0,30.27,ENE,72,3.0,4.0,79,0.00,,,0.00,weatherlink.com 1.10,2013-02-03 05:32:00,
2013-02-02 23:47:00,55.9,50.0,30.27,ENE,65,3.0,4.0,79,0.00,,,0.00,weatherlink.com 1.10,2013-02-03 05:47:00,